www.pogodaiklimat.ru

Погода и климат >> Архив погоды >> Норвегия >> Маяк Krakenes


ПОГОДА на Маяке Krakenes

  • Прогноз погоды на Маяке Krakenes
  • Монитор погоды на Маяке Krakenes

АРХИВ ПОГОДЫ на Маяке Krakenes

Время (UTC), дата Ветер
(напр.,м/с)
 
Видим.   Явления Облачность Т
(С)
Тd
(С)
f
(%)
Тe
(С)
Тes
(С)
Комфортность P
(гПа)
Po
(гПа)
Тmin
(С)
Tmax
(С)
R
(мм)
R24
(мм)
S
(см)
19 18.08 Ю 8
{12}
н/о н/о +16.3 +7.8 57 +15 +15 995.7 991.1
20 18.08 Ю 6
{11}
н/о н/о +16.3 +8.0 58 +15 +15 995.8 991.1
21 18.08 ЮВ 4
{11}
н/о н/о +15.6 +7.6 59 +15 +15 995.9 991.2
22 18.08 Ю 7
{12}
н/о н/о +16.1 +7.6 57 +15 +15 995.9 991.2
23 18.08 ЮВ 5
{12}
н/о н/о +15.9 +7.2 56 +15 +15 995.8 991.1
00 19.08 ЮВ 5
{12}
н/о н/о +15.7 +7.0 56 +15 +15 995.4 990.7
01 19.08 ЮВ 3
{8}
н/о н/о +15.6 +6.9 56 +15 +15 995.2 990.5
02 19.08 ЮВ 5
{8}
н/о н/о +15.7 +6.2 53 +15 +15 994.6 989.9
03 19.08 В 4
{8}
н/о н/о +14.9 +7.9 63 +14 +14 994.1 989.4
04 19.08 ЮВ 5
{9}
н/о н/о +15.8 +6.0 52 +15 +15 993.7 989.1
05 19.08 ЮВ 4
{9}
н/о н/о +15.4 +7.2 58 +15 +15 993.9 989.2
06 19.08 ЮВ 6
{13}
н/о н/о +14.0 +10.0 77 +12 +12 993.7 989.0 +14.0 +16.5
07 19.08 ЮВ 5
{13}
н/о н/о +14.0 +10.6 80 +12 +12 994.1 989.4
08 19.08 Ю 8
{15}
н/о н/о +14.6 +9.4 71 +12 +12 994.3 989.6
09 19.08 Ю 10
{19}
н/о н/о +14.0 +11.7 86 +11 +11 994.7 990.0
10 19.08 Ю 9
{16}
н/о н/о +13.7 +12.3 91 +11 +11 995.3 990.6
11 19.08 Ю 9
{16}
н/о н/о +14.1 +12.5 90 +11 +11 995.9 991.2
12 19.08 Ю 5
{19}
н/о н/о +14.4 +11.9 85 +13 +13 996.9 992.2
13 19.08 Ю 17
{20}
н/о н/о +14.1 +14.0 99 +10 +10 996.3 991.6
14 19.08 Ю 17
{23}
н/о н/о +14.0 +13.9 99 +10 +10 997.4 992.7
15 19.08 Ю 16
{20}
н/о н/о +14.4 +14.2 99 +11 +11 998.0 993.3
16 19.08 Ю 14
{20}
н/о н/о +14.7 +14.2 97 +11 +11 998.6 993.9
17 19.08 Ю 18
{23}
н/о н/о +13.7 +13.6 99 +10 +10 998.4 993.7
18 19.08 Ю 18
{24}
н/о н/о +13.8 +13.7 99 +10 +10 998.1 993.4 +13.1 +14.8
19 19.08 Ю 17
{21}
н/о н/о +13.3 +13.2 99 +9 +9 998.8 994.1
20 19.08 ЮЗ 19
{21}
н/о н/о +13.9 +13.3 96 +10 +10 999.2 994.5
21 19.08 Ю 18
{21}
н/о н/о +13.4 +13.3 99 +9 +9 1000.0 995.3
22 19.08 Ю 17
{20}
н/о н/о +13.7 +13.6 99 +10 +10 1000.6 995.9
23 19.08 Ю 16
{20}
н/о н/о +13.9 +13.8 99 +10 +10 1001.1 996.4
00 20.08 ЮЗ 13
{21}
н/о н/о +13.6 +13.5 99 +10 +10 1001.6 996.9
01 20.08 ЮЗ 12
{17}
н/о н/о +13.4 +13.3 99 +10 +10 1002.3 997.6
02 20.08 ЮЗ 13
{14}
н/о н/о +13.5 +13.4 99 +10 +10 1002.8 998.1
03 20.08 ЮЗ 12
{14}
н/о н/о +13.2 +13.1 99 +10 +10 1003.2 998.5
04 20.08 ЮЗ 12
{13}
н/о н/о +13.8 +13.7 99 +10 +10 1003.7 999.0
05 20.08 ЮЗ 11
{13}
н/о н/о +13.7 +12.6 93 +10 +10 1004.1 999.4
06 20.08 ЮЗ 12
{17}
н/о н/о +13.8 +13.7 99 +10 +10 1004.5 999.8 +12.8 +14.1
07 20.08 ЮЗ 12
{13}
н/о н/о +13.5 +13.4 99 +10 +10 1005.2 1000.5
08 20.08 ЮЗ 13
{15}
н/о н/о +13.8 +13.7 99 +10 +10 1005.8 1001.1
09 20.08 ЮЗ 12
{15}
н/о н/о +13.2 +13.1 99 +10 +10 1006.8 1002.0
10 20.08 ЮЗ 12
{15}
н/о н/о +13.0 +12.7 98 +9 +9 1007.5 1002.7
11 20.08 ЮЗ 12
{15}
н/о н/о +13.1 +12.3 95 +9 +9 1008.1 1003.3
12 20.08 ЮЗ 13
{15}
н/о н/о +13.4 +11.6 89 +10 +10 1008.7 1003.9
13 20.08 ЮЗ 14
{15}
н/о н/о +13.5 +13.4 99 +10 +10 1009.4 1004.6
14 20.08 ЮЗ 13
{16}
н/о н/о +13.1 +13.0 99 +9 +9 1010.2 1005.4
15 20.08 ЮЗ 14
{17}
н/о н/о +13.3 +13.1 99 +9 +9 1010.7 1005.9
16 20.08 ЮЗ 15
{17}
н/о н/о +13.2 +12.7 97 +9 +9 1011.3 1006.5
17 20.08 ЮЗ 14
{17}
н/о н/о +12.9 +12.7 99 +9 +9 1011.9 1007.1
18 20.08 ЮЗ 15
{17}
н/о н/о +13.0 +12.4 96 +9 +9 1012.2 1007.4 +12.3 +13.8
19 20.08 ЮЗ 14
{17}
н/о н/о +11.8 +11.7 99 +7 +7 1013.3 1008.5
20 20.08 ЮЗ 15
{19}
н/о н/о +11.5 +11.4 99 +7 +7 1013.3 1008.5
21 20.08 ЮЗ 14
{18}
н/о н/о +12.0 +11.2 95 +8 +8 1014.0 1009.2
22 20.08 ЮЗ 14
{18}
н/о н/о +11.6 +11.5 99 +7 +7 1015.1 1010.3
23 20.08 ЮЗ 12
{18}
н/о н/о +11.9 +11.8 99 +8 +8 1015.9 1011.1
00 21.08 ЮЗ 14
{19}
н/о н/о +10.6 +10.5 99 +5 +5 1016.1 1011.3
01 21.08 З 12
{16}
н/о н/о +11.9 +9.1 83 +8 +8 1017.0 1012.2
02 21.08 З 14
{16}
н/о н/о +11.6 +10.5 93 +7 +7 1017.1 1012.3
03 21.08 ЮЗ 14
{16}
н/о н/о +11.8 +7.1 73 +7 +7 1017.4 1012.6
04 21.08 ЮЗ 12
{16}
н/о н/о +11.9 +6.6 70 +8 +8 1018.2 1013.4
05 21.08 З 12
{15}
н/о н/о +11.5 +8.0 79 +7 +7 1018.8 1014.0
06 21.08 ЮЗ 10
{16}
н/о н/о +11.5 +6.2 70 +8 +8 1019.5 1014.7 +10.5 +13.0
07 21.08 ЮЗ 10
{13}
н/о н/о +11.5 +6.6 72 +8 +8 1020.2 1015.4
08 21.08 ЮЗ 10
{13}
н/о н/о +11.8 +7.3 74 +8 +8 1020.6 1015.8
09 21.08 ЮЗ 11
{12}
н/о н/о +12.1 +6.2 67 +8 +8 1020.8 1016.0
10 21.08 ЮЗ 11
{13}
н/о н/о +12.5 +6.3 66 +9 +9 1021.2 1016.4
11 21.08 Ю 11
{13}
н/о н/о +12.6 +6.7 67 +9 +9 1021.3 1016.5
12 21.08 Ю 10
{13}
н/о н/о +13.3 +6.4 63 +10 +10 1021.6 1016.8
13 21.08 Ю 10
{11}
н/о н/о +13.3 +6.9 65 +10 +10 1021.3 1016.5
14 21.08 ЮЗ 10
{12}
н/о н/о +13.4 +8.5 72 +10 +10 1021.4 1016.6
15 21.08 ЮЗ 12
{13}
н/о н/о +13.7 +8.3 70 +11 +11 1021.1 1016.3
16 21.08 Ю 10
{14}
н/о н/о +13.9 +9.0 72 +11 +11 1021.0 1016.2
17 21.08 Ю 8
{11}
н/о н/о +14.0 +8.8 71 +12 +12 1020.9 1016.1
18 21.08 Ю 8
{14}
н/о н/о +13.8 +8.9 72 +11 +11 1020.4 1015.6 +11.4 +14.1
19 21.08 Ю 6
{9}
н/о н/о +13.9 +9.9 77 +12 +12 1020.1 1015.3
20 21.08 Ю 6
{10}
н/о н/о +14.0 +8.0 67 +12 +12 1019.8 1015.0
21 21.08 Ю 4
{8}
н/о н/о +13.8 +8.6 71 +12 +12 1019.7 1014.9
22 21.08 Ю 6
{10}
н/о н/о +14.0 +7.8 66 +12 +12 1019.5 1014.7
23 21.08 Ю 9
{14}
н/о н/о +14.1 +5.5 56 +12 +12 1018.8 1014.0
00 22.08 ЮВ 4
{15}
н/о н/о +13.7 +5.9 59 +12 +12 1018.3 1013.5
01 22.08 ЮВ 5
{11}
н/о н/о +13.8 +6.2 60 +12 +12 1017.6 1012.8
02 22.08 В 5
{10}
н/о н/о +13.7 +7.0 64 +12 +12 1016.6 1011.8
03 22.08 В 5
{7}
н/о н/о +13.5 +7.9 69 +12 +12 1015.7 1010.9
04 22.08 ЮВ 6
{12}
н/о н/о +14.3 +5.7 56 +13 +13 1014.4 1009.6
05 22.08 ЮВ 6
{10}
н/о н/о +14.1 +6.2 59 +12 +12 1013.9 1009.1
06 22.08 ЮВ 4
{12}
н/о н/о +14.4 +7.0 61 +13 +13 1013.7 1008.9 +13.2 +14.6
07 22.08 В 6
{12}
н/о н/о +13.7 +9.6 76 +12 +12 1012.8 1008.0
08 22.08 ЮВ 7
{10}
н/о н/о +14.3 +8.1 66 +12 +12 1011.7 1006.9
09 22.08 ЮВ 5
{12}
н/о н/о +13.9 +9.6 75 +12 +12 1011.4 1006.6
10 22.08 В 5
{9}
н/о н/о +14.1 +9.7 75 +12 +12 1010.7 1005.9
11 22.08 Ю 5
{15}
н/о н/о +15.0 +9.4 69 +14 +14 1010.5 1005.8
12 22.08 Ю 11
{20}
н/о н/о +14.3 +12.7 90 +11 +11 1010.2 1005.5
13 22.08 Ю 10
{18}
н/о н/о +15.0 +11.8 81 +13 +13 1010.6 1005.9
14 22.08 Ю 13
{15}
н/о н/о +14.1 +14.0 99 +11 +11 1010.5 1005.7
15 22.08 ЮЗ 12
{20}
н/о н/о +13.7 +13.6 99 +10 +10 1011.0 1006.2
16 22.08 ЮЗ 14
{16}
н/о н/о +13.9 +13.8 99 +10 +10 1010.8 1006.0
17 22.08 ЮЗ 11
{15}
н/о н/о +13.8 +13.3 97 +11 +11 1011.5 1006.7
18 22.08 Ю 14
{20}
н/о н/о +14.0 +13.7 98 +10 +10 1011.4 1006.6 +13.2 +15.3
19 22.08 Ю 10
{16}
н/о н/о +14.2 +11.9 86 +11 +11 1011.9 1007.1
20 22.08 Ю 7
{13}
н/о н/о +14.2 +10.8 80 +12 +12 1011.6 1006.8
21 22.08 Ю 6
{13}
н/о н/о +14.1 +8.5 69 +12 +12 1011.4 1006.6
22 22.08 Ю 9
{15}
н/о н/о +13.3 +7.8 69 +10 +10 1010.3 1005.5
23 22.08 ЮВ 7
{14}
н/о н/о +12.8 +7.9 72 +10 +10 1009.6 1004.8
00 23.08 В 6
{16}
н/о н/о +13.0 +8.1 72 +11 +11 1009.1 1004.3
01 23.08 ЮВ 6
{12}
н/о н/о +13.5 +9.8 78 +11 +11 1008.7 1003.9
02 23.08 ЮВ 4
{14}
н/о н/о +13.1 +10.6 85 +11 +11 1008.4 1003.6
03 23.08 Ю 6
{10}
н/о н/о +13.9 +9.6 75 +12 +12 1008.4 1003.7
04 23.08 Ю 6
{10}
н/о н/о +14.1 +10.9 81 +12 +12 1008.6 1003.9
05 23.08 Ю 8
{13}
н/о н/о +13.6 +12.2 91 +11 +11 1009.1 1004.3
06 23.08 Ю 6
{14}
н/о н/о +13.0 +12.9 99 +10 +10 1010.2 1005.4 +12.4 +14.3
07 23.08 Ю 10
{12}
н/о н/о +13.5 +13.4 99 +10 +10 1010.5 1005.7
08 23.08 Ю 12
{14}
н/о н/о +13.2 +13.1 99 +10 +10 1010.9 1006.1
09 23.08 Ю 13
{17}
н/о н/о +13.5 +13.4 99 +10 +10 1011.6 1006.8
10 23.08 ЮЗ 16
{19}
н/о н/о +12.9 +12.8 99 +9 +9 1012.2 1007.4
11 23.08 ЮЗ 14
{18}
н/о н/о +13.1 +13.0 99 +9 +9 1013.2 1008.4
12 23.08 Ю 15
{19}
н/о н/о +13.2 +13.1 99 +9 +9 1014.0 1009.2
13 23.08 ЮЗ 15
{19}
н/о н/о +13.5 +13.4 99 +10 +10 1014.7 1009.9
14 23.08 Ю 16
{18}
н/о н/о +13.8 +13.7 99 +10 +10 1015.6 1010.8
15 23.08 ЮЗ 14
{18}
н/о н/о +13.4 +13.3 99 +10 +10 1016.1 1011.3
16 23.08 ЮЗ 16
{20}
н/о н/о +13.5 +13.4 99 +9 +9 1016.3 1011.5
17 23.08 Ю 16
{20}
н/о н/о +13.6 +13.5 99 +10 +10 1016.9 1012.1
18 23.08 ЮЗ 14
{20}
н/о н/о +13.8 +13.7 99 +10 +10 1017.6 1012.8 +12.5 +14.2
19 23.08 Ю 11
{16}
н/о н/о +14.4 +14.2 99 +11 +11 1018.0 1013.2
20 23.08 Ю 8
{14}
н/о н/о +14.7 +13.9 95 +12 +12 1018.9 1014.1
21 23.08 Ю 5
{12}
н/о н/о +14.6 +13.8 95 +13 +13 1019.0 1014.2
22 23.08 В 1
{10}
н/о н/о +13.9 +13.8 99 +14 +14 1019.4 1014.6
23 23.08 Ю 5
{8}
н/о н/о +14.3 +14.1 99 +12 +12 1019.6 1014.8
00 24.08 Ю 7
{16}
н/о н/о +14.8 +14.6 99 +13 +13 1019.7 1014.9
01 24.08 Ю 12
{15}
н/о н/о +14.9 +14.7 99 +12 +12 1019.5 1014.7
02 24.08 Ю 13
{17}
н/о н/о +14.4 +14.2 99 +11 +11 1019.7 1014.9
03 24.08 Ю 11
{15}
н/о н/о +14.2 +14.1 99 +11 +11 1020.4 1015.6
04 24.08 Ю 11
{14}
н/о н/о +14.1 +14.0 99 +11 +11 1020.5 1015.7
05 24.08 Ю 9
{11}
н/о н/о +14.7 +14.5 99 +12 +12 1020.9 1016.1
06 24.08 Ю 7
{17}
н/о н/о +15.4 +15.2 99 +14 +14 1021.0 1016.2 +13.8 +15.5
07 24.08 Ю 8
{11}
н/о н/о +15.8 +15.6 99 +14 +14 1020.8 1016.0
08 24.08 Ю 8
{13}
н/о н/о +16.0 +15.8 99 +14 +14 1020.6 1015.8
09 24.08 Ю 7
{14}
н/о н/о +17.1 +13.4 79 +16 +16 1020.8 1016.0
10 24.08 Ю 8
{16}
н/о н/о +17.4 +14.5 83 +16 +16 1020.3 1015.6
11 24.08 Ю 9
{16}
н/о н/о +17.9 +15.3 85 +17 +17 1020.1 1015.4
12 24.08 Ю 11
{16}
н/о н/о +17.9 +16.2 90 +17 +17 1019.8 1015.1
13 24.08 Ю 13
{19}
н/о н/о +17.9 +16.4 91 +16 +16 1019.6 1014.9
14 24.08 Ю 12
{16}
н/о н/о +16.8 +16.6 99 +15 +15 1019.9 1015.1
15 24.08 Ю 15
{21}
н/о н/о +17.5 +17.3 99 +16 +16 1018.9 1014.2
16 24.08 Ю 16
{22}
н/о н/о +17.2 +17.0 99 +15 +15 1018.6 1013.9
17 24.08 Ю 17
{23}
н/о н/о +17.6 +17.1 97 +16 +16 1017.3 1012.6
18 24.08 Ю 16
{25}
н/о н/о +17.4 +17.1 98 +15 +15 1018.1 1013.4 +15.2 +18.1
19 24.08 Ю 16
{23}
н/о н/о +17.7 +15.9 89 +16 +16 1017.7 1013.0
20 24.08 Ю 16
{22}
н/о н/о +17.8 +15.3 85 +16 +16 1017.8 1013.1
21 24.08 Ю 17
{23}
н/о н/о +17.9 +14.4 80 +16 +16 1017.7 1013.0
22 24.08 Ю 15
{21}
н/о н/о +17.7 +17.5 99 +16 +16 1017.9 1013.2
23 24.08 Ю 16
{22}
н/о н/о +17.4 +16.8 96 +15 +15 1017.9 1013.2
00 25.08 Ю 17
{23}
н/о н/о +16.9 +16.7 99 +14 +14 1017.7 1013.0
01 25.08 Ю 15
{23}
н/о н/о +17.0 +16.8 99 +15 +15 1017.9 1013.2
02 25.08 Ю 16
{21}
н/о н/о +17.1 +16.0 93 +15 +15 1017.4 1012.7
03 25.08 Ю 16
{21}
н/о н/о +16.8 +16.6 99 +14 +14 1017.6 1012.9
04 25.08 Ю 21
{24}
н/о н/о +15.9 +15.7 99 +13 +13 1017.7 1012.9
05 25.08 Ю 18
{24}
н/о н/о +15.7 +15.5 99 +13 +13 1017.3 1012.5
06 25.08 Ю 16
{24}
н/о н/о +16.2 +16.0 99 +14 +14 1018.1 1013.3 +15.7 +18.1
07 25.08 Ю 15
{20}
н/о н/о +16.4 +16.2 99 +14 +14 1018.3 1013.5
08 25.08 ЮЗ 18
{21}
н/о н/о +15.5 +15.3 99 +12 +12 1018.5 1013.7
09 25.08 Ю 17
{21}
н/о н/о +15.2 +15.0 99 +12 +12 1018.6 1013.8
10 25.08 Ю 15
{19}
н/о н/о +14.9 +14.7 99 +12 +12 1019.5 1014.7
11 25.08 ЮЗ 14
{17}
н/о н/о +15.0 +14.8 99 +12 +12 1019.8 1015.0
12 25.08 ЮЗ 13
{21}
н/о н/о +15.1 +14.9 99 +12 +12 1020.1 1015.3
13 25.08 ЮЗ 13
{15}
н/о н/о +15.2 +15.0 99 +12 +12 1019.9 1015.1
14 25.08 ЮЗ 12
{14}
н/о н/о +15.4 +15.2 99 +13 +13 1020.4 1015.6
15 25.08 ЮЗ 14
{15}
н/о н/о +15.5 +15.3 99 +13 +13 1020.0 1015.2
16 25.08 ЮЗ 13
{14}
н/о н/о +15.9 +15.7 99 +13 +13 1019.8 1015.0
17 25.08 ЮЗ 12
{13}
н/о н/о +15.7 +15.5 99 +13 +13 1019.6 1014.8
18 25.08 ЮЗ 9
{15}
н/о н/о +15.8 +15.6 99 +14 +14 1020.0 1015.2 +14.9 +16.7
19 25.08 Ю 8
{10}
н/о н/о +16.2 +16.0 99 +15 +15 1020.2 1015.4

 

Местоположение метеостанции Маяк Krakenes (Норвегия): широта 62.03 долгота 4.99 высота над уровнем моря 75 м.

В архиве по умолчанию представлена погода на Маяке Krakenes за последнюю неделю. Архивные данные за месяц целиком и за предыдущие месяцы, начиная с января 2011 года, Вы можете получить, выбрав интересующий диапазон дат из раскрывающегося списка и нажав кнопку "Ввод!".


*Определитесь, кто Вы:
робот инопланетянин человек

Внимание! Время в таблицах - всемирное. Для получения местного времени необходимо прибавить поправку, которая равна 1 ч.

Смотрите также архив погоды в соседних городах и на ближайших метеорологических станциях:

Погода в Берген аэропорту (Норвегия) (31 км)
Погода в Фиске (Норвегия) (32 км)
Погода на Маяке Svinoy (Норвегия) (36 км)
Погода в Флоро аэропорту (Норвегия) (50 км)
Погода на Маяке Ytteroyane (Норвегия) (54 км)
Погода в Аэропорту Орста-Волда (Норвегия) (59 км)
Погода в Сандан аэропорту (Норвегия) (62 км)
Погода во Флурё (Норвегия) (79 км)
Погода в Олесунне (Норвегия) (80 км)
Погода во Флурё аэропорту (Норвегия) (82 км)

Пояснения к столбцам:

Ветер - указаны скорость ветра в м/с - средняя за 10 мин, порывы в срок и между сроками (в фигурных скобках) и направление, откуда дует ветер: С - северный, СВ - северо-восточный, В - восточный, ЮВ - юго-восточный, Ю - южный, ЮЗ - юго-западный, З - западный, СЗ - северо-западный.
Видимость - горизонтальная дальность видимости в метрах или километрах. При видимости от 1 до 10 км при отсутствии осадков обычно наблюдается дымка, при ухудшении видимости до 1 км и менее - туман. В сухую погоду видимость может ухудшаться дымом, пылью или мглою.
Явления - указаны атмосферные явления, наблюдавшиеся в срок или в последний час перед сроком; фигурными скобками обозначены явления, наблюдавшиеся между сроками (за 1-3 часа до срока); квадратными скобками обозначены град или гололедные отложения с указанием их диаметра в мм.
Облачность - указаны через наклонную черту общая и нижняя облачность в баллах и высота нижней границы облаков в метрах; квадратными скобками обозначены формы облаков: Ci - перистые, Cs - перисто-слоистые, Cc - перисто-кучевые, Ac - высококучевые, As - высокослоистые, Sc - слоисто-кучевые, Ns - слоисто-дождевые, Cu - кучевые, Cb - кучево-дождевые. Подробнее классификацию облаков см. в Атласе облаков (PDF).
T - Температура воздуха - температура, измеренная на высоте 2 м над землей.
Td - Температура точки росы - температура, при понижении до которой содержащийся в воздухе водяной пар достигнет насыщения.
f - Относительная влажность воздуха - влажноcть воздуха, измеренная на высоте 2 м над землей.
Te - Эффективная температура - температура, которую ощущает одетый по сезону человек в тени. Характеристика душности погоды. При расчете учитывается влияние влажности воздуха и скорости ветра на теплоощущения человека.
Tes - Эффективная температура на солнце - температура, которую ощущает человек, с поправкой на солнечный нагрев. Характеристика знойности погоды. Зависит от высоты солнца над горизонтом, облачности и скорости ветра. Ночью, в пасмурную погоду, а также при ветре 12 м/с и более поправка равна нулю.
P - Атмосферное давление - приведенное к уровню моря атмосферное давление.
Po - Атмосферное давление - измеренное на уровне метеостанции атмосферное давление.
Tmin - Минимальная температура - минимум температуры воздуха на высоте 2 м над землей.
Tmax - Максимальная температура - максимум температуры воздуха на высоте 2 м над землей.
R - Количество осадков - Количество выпавших осадков за период времени, мм. При наведении курсора мыши на число - период времени, за который выпало указанное количество осадков.
R24 - Количество осадков - Количество выпавших осадков за 24 часа, мм.
S - Снежный покров - Высота снежного покрова, см. При наведении курсора мыши на число - состояние снежного покрова и степень покрытия местности в баллах.